Location: Ashtead
(51.3000°N, 0.3000°W)
Time: 15:42:57
(UTC+00:00)

CZ-2C R/B - Pass Details

Date: 04 May 2025
Orbit: 781 x 868 km, 98.4° (Epoch: 12 May)

Event Time Altitude Azimuth Distance (km) Brightness Sun altitude
Exits shadow 02:09:43 24° 240° (WSW) 1,615 3.7 -16.8°
Maximum altitude 02:11:11 28° 267° (W) 1,489 3.7 -16.7°
Drops below altitude 10° 02:15:40 10° 325° (NW) 2,379 5.3 -16.3°
Sets 02:18:19 0° 338° (NNW) 3,303 6.3 -16.1°
